MST,Max TemperatureF,Mean TemperatureF,Min TemperatureF,Max Dew PointF,MeanDew PointF,Min DewpointF,Max Humidity, Mean Humidity, Min Humidity, Max Sea Level PressureIn, Mean Sea Level PressureIn, Min Sea Level PressureIn, Max VisibilityMiles, Mean VisibilityMiles, Min VisibilityMiles, Max Wind SpeedMPH, Mean Wind SpeedMPH, Max Gust SpeedMPH,PrecipitationIn, CloudCover, Events, WindDirDegrees
2013-1-1,29,18,6,19,9,1,88,72,55,30.31,30.25,30.19,10,10,7,22,12,30,T,2,,291
2013-1-2,31,26,20,21,17,11,88,69,49,30.39,30.25,30.07,10,9,4,30,20,38,T,7,Snow,322
2013-1-3,32,15,-2,14,7,-5,87,63,39,30.47,30.37,30.27,10,9,2,20,10,24,T,2,Snow,300
2013-1-4,45,28,10,22,11,1,84,60,36,30.36,30.23,30.09,10,10,10,17,9,20,0.00,0,,288
2013-1-5,39,27,15,22,14,8,74,62,50,30.40,30.28,30.08,10,10,10,26,15,33,0.00,0,,306
2013-1-6,45,25,5,22,13,3,88,61,33,30.38,30.20,29.96,10,10,10,21,9,25,0.00,0,,243
2013-1-7,46,33,19,22,16,13,81,55,28,30.07,29.97,29.83,10,10,10,21,8,24,0.00,0,,277
2013-1-8,50,35,20,23,21,14,69,52,34,30.24,29.99,29.79,10,10,10,37,16,45,0.00,1,,294
2013-1-9,55,37,19,27,22,15,84,58,32,30.36,30.23,30.06,10,10,10,28,14,35,0.00,0,,210
2013-1-10,51,40,29,40,29,19,92,76,59,30.03,29.72,29.44,10,8,0,25,12,32,0.00,2,Fog,166
2013-1-11,32,18,4,30,19,-2,100,87,73,29.98,29.46,29.31,10,3,0,35,16,40,T,6,Fog-Rain-Snow,340
2013-1-12,12,1,-10,4,-3,-14,83,75,66,30.34,30.19,29.97,10,10,8,28,14,35,0.00,1,,319
2013-1-13,16,4,-8,5,-3,-13,86,73,59,30.43,30.31,30.05,10,10,10,14,8,16,T,2,,300
2013-1-14,17,5,-8,8,-1,-11,87,74,61,30.48,30.33,30.09,10,8,1,13,7,15,T,5,Snow,258
2013-1-15,31,10,-11,20,7,-16,82,68,53,30.39,30.25,30.12,10,10,9,23,14,29,0.00,5,,292
2013-1-16,47,37,26,24,19,15,69,52,34,30.39,30.25,30.12,10,10,10,30,18,37,0.00,2,,299
2013-1-17,51,37,22,22,17,12,75,49,23,30.53,30.39,30.19,10,10,10,17,12,21,0.00,0,,261
2013-1-18,59,42,25,17,12,9,68,41,14,30.18,30.08,29.97,10,10,10,31,17,40,0.00,0,,286
2013-1-19,55,40,24,21,12,7,75,45,15,30.31,30.17,29.97,10,10,10,23,12,29,0.00,0,,302
2013-1-20,42,26,10,21,15,9,88,61,34,30.44,30.32,30.14,10,10,10,25,10,31,0.00,0,,295
2013-1-21,48,28,8,18,13,6,88,57,26,30.36,30.25,30.12,10,10,10,12,7,14,0.00,1,,246
2013-1-22,57,35,12,13,9,4,84,48,12,30.21,30.13,30.07,10,10,10,24,12,30,0.00,0,,307
2013-1-23,52,35,17,18,12,5,81,49,16,30.32,30.20,30.12,10,10,10,23,9,56,0.00,0,,122
2013-1-24,67,44,20,28,21,14,92,53,13,30.20,30.10,29.90,10,10,8,29,14,48,0.00,1,,233
2013-1-25,56,38,19,27,23,16,81,58,35,30.20,30.15,30.08,10,10,10,18,9,26,0.00,0,,229
2013-1-26,61,41,21,34,25,20,88,58,27,30.07,29.94,29.73,10,10,10,13,7,24,T,2,Rain,237
2013-1-27,58,45,32,41,37,32,100,72,43,29.77,29.71,29.64,10,10,5,17,7,20,0.10,4,Rain,277
2013-1-28,40,33,25,35,29,25,100,91,82,29.81,29.69,29.61,10,5,0,23,12,29,0.01,6,Fog-Snow,347
2013-1-29,30,22,14,27,18,10,100,77,53,30.06,29.83,29.71,10,8,2,30,15,35,T,5,Snow,326
2013-1-30,35,20,5,21,13,0,83,64,44,30.05,29.97,29.89,10,10,10,30,13,37,0.00,3,,297
2013-1-31,27,23,19,22,16,10,81,69,57,30.29,30.15,29.89,10,10,10,20,11,25,0.00,8,,325